Location: Newark
(55.7681°N, 37.7103°E)
Time: 17:12:13
(UTC+00:00)

N. Korean satellite - Pass Details

Date: 22 October 2019
Orbit: 456 x 506 km, 97.2° (Epoch: 17 November)

Event Time Altitude Azimuth Distance (km) Brightness Sun altitude
Rises 02:19:29 0° 28° (NNE) 2,560 10.7 -16.6°
Reaches altitude 10° 02:22:22 10° 54° (NE) 1,685 10.2 -16.2°
Maximum altitude 02:24:24 14° 88° (E) 1,437 10.2 -15.9°
Drops below altitude 10° 02:26:27 10° 122° (ESE) 1,692 10.1 -15.6°
Sets 02:29:20 0° 148° (SSE) 2,578 10.7 -15.2°
